Regional Weather Roundup
Issued by NWS

Home | Current Version | Previous Version | Graphics & Text | Print | Product List | Glossary On
Versions: 1 2 3 4 5 6 7 8 9 10 11 12 13 14 15 16 17 18 19 20 21 22 23 24 25 26 27 28 29 30 31 32 33 34 35 36 37 38 39 40 41 42 43 44 45 46 47 48 49 50
000
ASUS45 KABQ 210801
RWRNM
WEATHER ROUNDUP FOR NEW MEXICO
NATIONAL WEATHER SERVICE ALBUQUERQUE NM
100 AM MST SUN DEC 21 2014

NOTE: "FAIR" MEANS FEW OR NO CLOUDS BELOW 12,000 FEET AGL WITH NO
       SIGNIFICANT WEATHER OR OBSTRUCTIONS TO VISION.

      THIS PRODUCT IS RELEASED AS TWO VERSIONS.  ONE VERSION NEAR
      THE TOP OF THE HOUR CONTAINING PRELIMINARY DATA FROM ALBUQUERQUE
      AND OTHER STATIONS.  A FINAL VERSION WITH ADDITIONAL DATA IS
      ISSUED ABOUT 10 MINUTES AFTER THE HOUR.

NMZ501-503-504-510>518-210900-
NORTHWEST PLATEAU/NORTHCENTRAL MOUNTAINS

CITY           SKY/WX    TMP DP  RH WIND       PRES   REMARKS
FARMINGTON     PTCLDY    31  27  85 W8        30.09F WCI  23
SANTA FE       CLEAR     33  23  66 N17       30.04S WCI  22
TAOS           MOCLDY    28  21  74 CALM      30.07F

$$
NMZ402-403-502-505>509-210900-
WESTCENTRAL MOUNTAINS/SOUTHWEST MOUNTAINS

CITY           SKY/WX    TMP DP  RH WIND       PRES   REMARKS
GALLUP         PTCLDY    30  25  81 CALM      30.13F
SILVER CITY    PTCLDY    37  30  75 NW8       30.11S WCI  31

$$
NMZ407-409-411-412-210900-
SOUTHERN DESERTS

CITY           SKY/WX    TMP DP  RH WIND       PRES   REMARKS
DEMING         PTCLDY    34  30  85 SW7       30.08F WCI  28
HOLLOMAN AFB   MOCLDY    33  26  76 E3        30.05F
ALAMOGORDO     MOCLDY    32  25  74 NE3       30.06F
T OR C         PTCLDY    38  24  57 CALM      30.07S

$$
NMZ519>523-210900-
CENTRAL VALLEYS/CENTRAL HIGHLANDS

CITY           SKY/WX    TMP DP  RH WIND       PRES   REMARKS
ALBUQUERQUE    PTCLDY    34  26  72 W7        30.10R WCI  28
DOUBLE EAGLE   CLEAR     30  25  82 W9        30.10S WCI  22
CLINES CORNERS CLEAR     31  21  66 W20       29.98S WCI  19
BELEN          FAIR      27  24  88 N3        30.10S
SOCORRO        NOT AVBL

$$
NMZ524>526-539-540-210900-
SOUTHCENTRAL MOUNTAINS

CITY           SKY/WX    TMP DP  RH WIND       PRES   REMARKS
RUIDOSO        NOT AVBL

$$
NMZ527>531-210900-
NORTHEAST HIGHLANDS/NORTHEAST PLAINS

CITY           SKY/WX    TMP DP  RH WIND       PRES   REMARKS
LAS VEGAS      PTCLDY    29  16  58 SE3       29.94F
RATON          PTCLDY    25  14  63 NE3       29.92F
CLAYTON        PTCLDY    35  21  56 W8        29.88F WCI  29

$$
NMZ532>537-210900-
EASTCENTRAL PLAINS

CITY           SKY/WX    TMP DP  RH WIND       PRES   REMARKS
TUCUMCARI      CLOUDY    31  19  61 W7        29.89F WCI  24
CANNON AFB     CLOUDY    37  21  52 W10       29.94F WCI  30
CLOVIS AIRPORT CLOUDY    32  19  59 W9        29.93F WCI  24

$$
NMZ028-029-538-210900-
SOUTHEAST PLAINS

CITY           SKY/WX    TMP DP  RH WIND       PRES   REMARKS
ROSWELL        MOCLDY    34  22  61 N5        29.98F WCI  30
ARTESIA        MOCLDY    34  23  64 CALM      30.00F
CARLSBAD       MOCLDY    34  24  67 SW7       29.99F WCI  28
HOBBS          FOG       39  39 100 S12       30.00F VSB 1/2 WCI  32


$$



USA.gov is the U.S. government's official web portal to all federal, state and local government web resources and services.